星链-35448(STARLINK-35448)

导读

STARLINK-35448是美国发射的Starlink星座卫星,发射于2025年11月15日,属于SpaceX公司星链互联网星座计划,是低轨卫星组网的组成部分。星链计划旨在为全球提供高速低延迟宽带互联网服务,该卫星持续为覆盖区域提供网络通信支持,推进星链星座全球组网进程。

Basic Information
目录编号:
66465
目录名称:
STARLINK-35448
国际标识:
2025-262K
轨道中心:
EARTH
卫星名称:
星链-35448
卫星全名:
星链-35448(STARLINK-35448)
卫星状态:
在轨 (已飞行293 天)
发射日期:
2025-11-15 UTC
国别 :
美国 (US)
星等 :
--
Orbit Information
数据来源 国际轨道数据
星历时间: 2026-09-03T16:14:00+0800
1天前
查看轨道信息
半长轴: 6861.146km
偏心率: 0.0001091
轨道倾角: 43.003°
近地点辐角 281.664°
升交点赤经 13.099°
平近点角 78.409°
近地点: 482.26km
远地点: 483.758km
周期: 94.266分钟
每日圈数: 15.275935
Detailed Information
固有亮度:
5
最大亮度:
2.5
卫星平台:
Starlink V1.0
覆盖范围:
全球
运营商:
太空探索技术公司
运营商所在国:
美国
制造商(研发单位):
太空探索技术公司
制造商所在国:
美国
使用方式:
暂无
Satellite Introduction
Starlink 计划是 SpaceX 推出的全球卫星互联网项目,通过发射低轨道卫星,为全球尤其是偏远地区提供高速、低延迟的互联网服务。自 2019 年起,Starlink 已部署数千颗卫星,旨在缩小全球数字鸿沟,推动互联网普及。该项目还为军事、航空等行业提供通信支持,带来广泛经济效益。
2D Orbit Map
3D Orbit Map
Orbit Altitude Analysis Chart
Orbit Inclination Analysis Chart
Orbit Comprehensive Analysis Chart
View Comprehensive Chart
Conjunction Data List
Event ID Objects TCA Miss Dist (km) Collision Risk Probability Collision Risk Index (CRI) Action
CDM_260906-182905-691806-646521
2026-09-06T
18:29:08+0000
0.054 km
近距离
1.3982E-3 极高风险 0.98
CDM_260906-090505-964506-646521
2026-09-06T
09:05:58+0000
0.474 km
远距离
1.82726E-4 高风险 0.8
CDM_260905-191705-638106-646521
2026-09-05T
19:17:46+0000
0.481 km
远距离
1.546387E-4 高风险 0.79
CDM_260904-174005-212306-646521
2026-09-04T
17:40:59+0000
0.571 km
远距离
5.028291E-5 中风险 0.69
CDM_260905-113106-186306-646521
2026-09-05T
11:31:43+0000
0.756 km
远距离
3.261825E-5 中风险 0.65
CDM_260906-220005-874206-646521
2026-09-06T
22:00:58+0000
1.010 km
极远距离
1.461943E-5 中风险 0.58
CDM_260906-233505-874206-646521
2026-09-06T
23:35:07+0000
1.155 km
极远距离
9.183225E-6 低风险 0.54
CDM_260905-200906-186306-646521
2026-09-05T
20:09:34+0000
1.151 km
极远距离
7.858202E-6 低风险 0.53
CDM_260905-174305-638106-646521
2026-09-05T
17:43:36+0000
1.533 km
极远距离
4.079071E-6 低风险 0.47
CDM_260905-095706-186306-646521
2026-09-05T
09:57:34+0000
1.408 km
极远距离
4.000088E-6 低风险 0.47